Regional Weather Roundup
Issued by NWS Charleston, SC

Current Version | Previous Version | Graphics & Text | Print | Product List | Glossary On
Versions: 1 2 3 4 5 6 7 8 9 10 11 12 13 14 15 16 17 18 19 20 21 22 23 24 25 26 27 28 29 30 31 32 33 34 35 36 37 38 39 40 41 42 43 44 45 46 47 48 49 50
000
ASUS42 KCHS 171012
RWRCHS

Regional Weather Roundup
National Weather Service Charleston SC
500 AM EST WED JAN 17 2018

NOTE: "fair" indicates few or no clouds below 12,000 feet with no
significant weather and/or obstructions to visibility.

Not all stations are quality controlled. Use data with caution,
especially dewpoint observations.

SCZ027-030-031-034>040-042>050-171100-
...Southeast South Carolina...

CITY           SKY/WX    TMP DP  RH WIND       PRES   REMARKS
N Charleston   FAIR      35  34  96 CALM      30.24F
Waterfront Prk NOT AVBL
Mount Pleasant FAIR      34  32  93 CALM      30.24F
Johns Island   FAIR      34  32  93 CALM      30.24F
Pinopolis        N/A     37  37 100 CALM      30.17F
Moncks Corner  FAIR      32  30  93 CALM      30.24F
Summerville    FAIR      32  32 100 CALM      30.25F
Beaufort MCAS  FAIR      36  35  96 CALM      30.23F
Beaufort Arpt  FAIR      36  36 100 E5        30.22F WCI  32
Hilton Head Is NOT AVBL
Walterboro     FAIR      32  32 100 CALM      30.25F
Allendale      CLOUDY    41  37  87 CALM      30.24S

...Southern Midlands and Pee Dee...

CITY           SKY/WX    TMP DP  RH WIND       PRES   REMARKS
Georgetown     FAIR      32  30  93 CALM      30.25F
Kingstree      CLOUDY    34  32  93 CALM      30.25S
Orangeburg     CLOUDY    41  34  76 CALM      30.23F
Barnwell         N/A     43  37  81 CALM      30.24F
Aiken          CLOUDY    41  32  70 W7        30.27F
Manning        CLOUDY    37  32  81 MISG      30.24F
Columbia       CLOUDY    44  36  73 CALM      30.23F
Sumter         CLOUDY    40  33  75 CALM      30.20F
Florence       CLOUDY    39  33  79 CALM      30.24F
Myrtle Beach   FAIR      32  29  88 CALM      30.26F
N Myrtle Beach FAIR      31  29  92 CALM      30.24F

$$

GAZ063-065-086>088-099>101-113>116-118-119-134>141-150-171100-
...Southeast Georgia...

CITY           SKY/WX    TMP DP  RH WIND       PRES   REMARKS
Savannah Arpt  FAIR      35  33  92 CALM      30.24F
Hunter AAF     FAIR      34  31  89 CALM      30.21F
Fort Stewart   FAIR      36  34  93 W3        30.23S
Statesboro     CLOUDY    39  36  89 CALM      30.25F
Sylvania       CLOUDY    39  38  96 CALM      30.25F
Claxton        FAIR      36  35  97 CALM      30.26S

...CSRA, Central and far Southeast Georgia...

CITY           SKY/WX    TMP DP  RH WIND       PRES   REMARKS
Thomson        LGT RAIN  37  29  73 N13       30.33R WCI  29
Augusta-Bush   CLOUDY    43  34  70 NW8       30.25F
Augusta-Daniel CLOUDY    43  33  68 NW5       30.25F
Swainsboro     CLOUDY    43  36  75 NW9       30.27S
Vidalia        CLOUDY    45  37  76 NW6       30.25F
Eastman        CLOUDY    41  27  56 NW7       30.32S
Hazlehurst     CLOUDY    45  35  69 NW3       30.26S
Alma           MOCLDY    37  35  92 CALM      30.27R
Waycross       FAIR      40  38  91 NW8       30.27R WCI  35
Jesup          FAIR      39  37  93 NW6       30.25S WCI  35
Baxley         MOCLDY    41  36  81 NW3       30.26S
Brunswick      FOG       34  32  93 CALM      30.25S VSB 1/4
Saint Simons   LGT RAIN  38  37  97 CALM      30.23F FOG

$$

SCZ027-028-034-036>038-045-046-048>050-GAZ119-141-171100-
...Lake and Supplemental Coastal Observations...

STATION/POSITION TIME  TEMP    WIND        PRES    WAVE   SWELL
                       AIR SEA DIR/SP/G            HT/PER HT/PER/DIR
                 (UTC) (F)     (DEG/KT/KT) (MB)    (FT/S) (FT/S/D)
Winyah Bay       NOT AVBL
Lake Murray      0920   44     290/  3/  6 1023.0F
ACE Basin NERRS  0845   35        CALM     1024.0
Fort Pulaski     0936   41 47  310/  4/  5 1024.0F
Sapelo Island    0900   38        CALM     1024.0

$$

ANZ835-935-AMZ111-154-330-350-352-354-370-450-454-472-171100-
...C-MAN and Buoy Observations...

STATION/POSITION TIME  TEMP    WIND        PRES    WAVE   SWELL
                       AIR SEA DIR/SP/G            HT/PER HT/PER/DIR
                 (UTC) (F)     (DEG/KT/KT) (MB)    (FT/S) (FT/S/D)
Buoy 41004       0950   58 70  310/  2/  4 1023.5F   4/10   3/110/10
Buoy 41008       0950   53 52  220/  2/  4 1023.5F   4/10   3/ 90/10
Folly Beach CMAN 0900   42     350/  4/  5 1024.7F
Capers Nearshore 0908   43 47   30/  4/  6 1024.0
Fripp Nearshore  NOT AVBL


STATION/POSITION TIME  TEMP    WIND        PRES    WAVE   SWELL
                       AIR SEA DIR/SP/G            HT/PER HT/PER/DIR
                 (UTC) (F)     (DEG/KT/KT) (MB)    (FT/S) (FT/S/D)
5E St. Marys GA  0930      50                N/A     3/11   2/100/11
Frying Pan Buoy  0950   55 62  360/  6/  8 1023.9F   4/11   3/110/11
Buoy 41025       0950   50 69  340/ 14/ 17 1024.8F   5/12   5/ 70/12
Cape Lookout NC  1000          340/  7/  7 1024.4F
Buoy 41002       0950   68 70  100/ 12/ 14 1021.4F   8/11   7/ 60/11
Buoy 41010       NOT AVBL
St Augustine FL  1000   50 50  310/  3/  4 1023.9F


$$




USA.gov is the U.S. government's official web portal to all federal, state and local government web resources and services.